Year,Month,Day,Hour,Minute,Value (Times are PST for temperature in C)
2016,03,31,00,00,10.50
2016,03,31,00,01,10.40
2016,03,31,00,02,10.40
2016,03,31,00,03,10.40
2016,03,31,00,04,10.40
2016,03,31,00,05,10.40
2016,03,31,00,06,10.40
2016,03,31,00,07,10.30
2016,03,31,00,08,10.30
2016,03,31,00,09,10.30
2016,03,31,00,10,10.30
2016,03,31,00,11,10.30
2016,03,31,00,12,10.20
2016,03,31,00,13,10.20
2016,03,31,00,14,10.20
2016,03,31,00,15,10.20
2016,03,31,00,16,10.20
2016,03,31,00,17,10.10
2016,03,31,00,18,10.10
2016,03,31,00,19,10.10
2016,03,31,00,20,10.10
2016,03,31,00,21,10.00
2016,03,31,00,22,10.00
2016,03,31,00,23,10.00
2016,03,31,00,24,9.90
2016,03,31,00,25,9.90
2016,03,31,00,26,9.90
2016,03,31,00,27,9.80
2016,03,31,00,28,9.80
2016,03,31,00,29,9.80
2016,03,31,00,30,9.80
2016,03,31,00,31,9.80
2016,03,31,00,32,9.80
2016,03,31,00,33,9.80
2016,03,31,00,34,9.80
2016,03,31,00,35,9.80
2016,03,31,00,36,9.70
2016,03,31,00,37,9.70
2016,03,31,00,38,9.70
2016,03,31,00,39,9.70
2016,03,31,00,40,9.70
2016,03,31,00,41,9.70
2016,03,31,00,42,9.70
2016,03,31,00,43,9.70
2016,03,31,00,44,9.60
2016,03,31,00,45,9.60
2016,03,31,00,46,9.60
2016,03,31,00,47,9.60
2016,03,31,00,48,9.60
2016,03,31,00,49,9.50
2016,03,31,00,50,9.50
2016,03,31,00,51,9.50
2016,03,31,00,52,9.50
2016,03,31,00,53,9.40
2016,03,31,00,54,9.40
2016,03,31,00,55,9.40
2016,03,31,00,56,9.40
2016,03,31,00,57,9.40
2016,03,31,00,58,9.40
2016,03,31,00,59,9.40
2016,03,31,01,00,9.40
2016,03,31,01,01,9.40
2016,03,31,01,02,9.30
2016,03,31,01,03,9.30
2016,03,31,01,04,9.30
2016,03,31,01,05,9.30
2016,03,31,01,06,9.30
2016,03,31,01,07,9.30
2016,03,31,01,08,9.30
2016,03,31,01,09,9.30
2016,03,31,01,10,9.30
2016,03,31,01,11,9.30
2016,03,31,01,12,9.30
2016,03,31,01,13,9.30
2016,03,31,01,14,9.30
2016,03,31,01,15,9.30
2016,03,31,01,16,9.30
2016,03,31,01,17,9.30
2016,03,31,01,18,9.30
2016,03,31,01,19,9.20
2016,03,31,01,20,9.20
2016,03,31,01,21,9.20
2016,03,31,01,22,9.20
2016,03,31,01,23,9.20
2016,03,31,01,24,9.20
2016,03,31,01,25,9.10
2016,03,31,01,26,9.10
2016,03,31,01,27,9.10
2016,03,31,01,28,9.10
2016,03,31,01,29,9.00
2016,03,31,01,30,9.00
2016,03,31,01,31,9.00
2016,03,31,01,32,9.00
2016,03,31,01,33,8.90
2016,03,31,01,34,8.90
2016,03,31,01,35,8.90
2016,03,31,01,36,8.90
2016,03,31,01,37,8.90
2016,03,31,01,38,8.90
2016,03,31,01,39,8.80
2016,03,31,01,40,8.80
2016,03,31,01,41,8.80
2016,03,31,01,42,8.80
2016,03,31,01,43,8.80
2016,03,31,01,44,8.80
2016,03,31,01,45,8.70
2016,03,31,01,46,8.70
2016,03,31,01,47,8.70
2016,03,31,01,48,8.70
2016,03,31,01,49,8.70
2016,03,31,01,50,8.70
2016,03,31,01,51,8.70
2016,03,31,01,52,8.60
2016,03,31,01,53,8.60
2016,03,31,01,54,8.60
2016,03,31,01,55,8.60
2016,03,31,01,56,8.60
2016,03,31,01,57,8.60
2016,03,31,01,58,8.60
2016,03,31,01,59,8.60
2016,03,31,02,00,8.50
2016,03,31,02,01,8.50
2016,03,31,02,02,8.50
2016,03,31,02,03,8.40
2016,03,31,02,04,8.40
2016,03,31,02,05,8.40
2016,03,31,02,06,8.40
2016,03,31,02,07,8.40
2016,03,31,02,08,8.40
2016,03,31,02,09,8.40
2016,03,31,02,10,8.40
2016,03,31,02,11,8.40
2016,03,31,02,12,8.30
2016,03,31,02,13,8.30
2016,03,31,02,14,8.30
2016,03,31,02,15,8.30
2016,03,31,02,16,8.30
2016,03,31,02,17,8.30
2016,03,31,02,18,8.30
2016,03,31,02,19,8.30
2016,03,31,02,20,8.30
2016,03,31,02,21,8.20
2016,03,31,02,22,8.20
2016,03,31,02,23,8.20
2016,03,31,02,24,8.20
2016,03,31,02,25,8.20
2016,03,31,02,26,8.20
2016,03,31,02,27,8.20
2016,03,31,02,28,8.10
2016,03,31,02,29,8.10
2016,03,31,02,30,8.10
2016,03,31,02,31,8.10
2016,03,31,02,32,8.10
2016,03,31,02,33,8.10
2016,03,31,02,34,8.10
2016,03,31,02,35,8.10
2016,03,31,02,36,8.10
2016,03,31,02,37,8.10
2016,03,31,02,38,8.10
2016,03,31,02,39,8.10
2016,03,31,02,40,8.10
2016,03,31,02,41,8.10
2016,03,31,02,42,8.10
2016,03,31,02,43,8.10
2016,03,31,02,44,8.10
2016,03,31,02,45,8.10
2016,03,31,02,46,8.10
2016,03,31,02,47,8.10
2016,03,31,02,48,8.10
2016,03,31,02,49,8.10
2016,03,31,02,50,8.00
2016,03,31,02,51,8.00
2016,03,31,02,52,8.00
2016,03,31,02,53,7.90
2016,03,31,02,54,7.90
2016,03,31,02,55,7.90
2016,03,31,02,56,7.90
2016,03,31,02,57,7.90
2016,03,31,02,58,7.90
2016,03,31,02,59,7.90
2016,03,31,03,00,7.90
2016,03,31,03,01,7.80
2016,03,31,03,02,7.80
2016,03,31,03,03,7.80
2016,03,31,03,04,7.80
2016,03,31,03,05,7.80
2016,03,31,03,06,7.80
2016,03,31,03,07,7.80
2016,03,31,03,08,7.70
2016,03,31,03,09,7.70
2016,03,31,03,10,7.70
2016,03,31,03,11,7.70
2016,03,31,03,12,7.70
2016,03,31,03,13,7.70
2016,03,31,03,14,7.70
2016,03,31,03,15,7.70
2016,03,31,03,16,7.70
2016,03,31,03,17,7.70
2016,03,31,03,18,7.70
2016,03,31,03,19,7.60
2016,03,31,03,20,7.60
2016,03,31,03,21,7.60
2016,03,31,03,22,7.60
2016,03,31,03,23,7.60
2016,03,31,03,24,7.60
2016,03,31,03,25,7.60
2016,03,31,03,26,7.60
2016,03,31,03,27,7.60
2016,03,31,03,28,7.50
2016,03,31,03,29,7.50
2016,03,31,03,30,7.40
2016,03,31,03,31,7.40
2016,03,31,03,32,7.40
2016,03,31,03,33,7.40
2016,03,31,03,34,7.40
2016,03,31,03,35,7.40
2016,03,31,03,36,7.40
2016,03,31,03,37,7.40
2016,03,31,03,38,7.30
2016,03,31,03,39,7.30
2016,03,31,03,40,7.30
2016,03,31,03,41,7.30
2016,03,31,03,42,7.30
2016,03,31,03,43,7.30
2016,03,31,03,44,7.30
2016,03,31,03,45,7.30
2016,03,31,03,46,7.30
2016,03,31,03,47,7.30
2016,03,31,03,48,7.30
2016,03,31,03,49,7.30
2016,03,31,03,50,7.30
2016,03,31,03,51,7.30
2016,03,31,03,52,7.30
2016,03,31,03,53,7.30
2016,03,31,03,54,7.30
2016,03,31,03,55,7.30
2016,03,31,03,56,7.30
2016,03,31,03,57,7.30
2016,03,31,03,58,7.30
2016,03,31,03,59,7.30
2016,03,31,04,00,7.30
2016,03,31,04,01,7.30
2016,03,31,04,02,7.30
2016,03,31,04,03,7.30
2016,03,31,04,04,7.30
2016,03,31,04,05,7.30
2016,03,31,04,06,7.30
2016,03,31,04,07,7.30
2016,03,31,04,08,7.20
2016,03,31,04,09,7.20
2016,03,31,04,10,7.20
2016,03,31,04,11,7.20
2016,03,31,04,12,7.20
2016,03,31,04,13,7.20
2016,03,31,04,14,7.20
2016,03,31,04,15,7.20
2016,03,31,04,16,7.20
2016,03,31,04,17,7.20
2016,03,31,04,18,7.20
2016,03,31,04,19,7.20
2016,03,31,04,20,7.20
2016,03,31,04,21,7.10
2016,03,31,04,22,7.20
2016,03,31,04,23,7.10
2016,03,31,04,24,7.10
2016,03,31,04,25,7.10
2016,03,31,04,26,7.10
2016,03,31,04,27,7.10
2016,03,31,04,28,7.10
2016,03,31,04,29,7.10
2016,03,31,04,30,7.10
2016,03,31,04,31,7.10
2016,03,31,04,32,7.10
2016,03,31,04,33,7.00
2016,03,31,04,34,7.00
2016,03,31,04,35,7.00
2016,03,31,04,36,7.00
2016,03,31,04,37,7.00
2016,03,31,04,38,7.00
2016,03,31,04,39,6.90
2016,03,31,04,40,6.90
2016,03,31,04,41,6.90
2016,03,31,04,42,6.90
2016,03,31,04,43,6.90
2016,03,31,04,44,6.90
2016,03,31,04,45,6.80
2016,03,31,04,46,6.80
2016,03,31,04,47,6.80
2016,03,31,04,48,6.80
2016,03,31,04,49,6.80
2016,03,31,04,50,6.80
2016,03,31,04,51,6.80
2016,03,31,04,52,6.80
2016,03,31,04,53,6.70
2016,03,31,04,54,6.70
2016,03,31,04,55,6.70
2016,03,31,04,56,6.70
2016,03,31,04,57,6.70
2016,03,31,04,58,6.70
2016,03,31,04,59,6.70
2016,03,31,05,00,6.70
2016,03,31,05,01,6.70
2016,03,31,05,02,6.70
2016,03,31,05,03,6.70
2016,03,31,05,04,6.70
2016,03,31,05,05,6.70
2016,03,31,05,06,6.70
2016,03,31,05,07,6.70
2016,03,31,05,08,6.70
2016,03,31,05,09,6.70
2016,03,31,05,10,6.70
2016,03,31,05,11,6.70
2016,03,31,05,12,6.70
2016,03,31,05,13,6.70
2016,03,31,05,14,6.70
2016,03,31,05,15,6.70
2016,03,31,05,16,6.70
2016,03,31,05,17,6.70
2016,03,31,05,18,6.70
2016,03,31,05,19,6.60
2016,03,31,05,20,6.60
2016,03,31,05,21,6.60
2016,03,31,05,22,6.60
2016,03,31,05,23,6.60
2016,03,31,05,24,6.60
2016,03,31,05,25,6.60
2016,03,31,05,26,6.60
2016,03,31,05,27,6.60
2016,03,31,05,28,6.60
2016,03,31,05,29,6.60
2016,03,31,05,30,6.60
2016,03,31,05,31,6.60
2016,03,31,05,32,6.60
2016,03,31,05,33,6.60
2016,03,31,05,34,6.60
2016,03,31,05,35,6.60
2016,03,31,05,36,6.60
2016,03,31,05,37,6.50
2016,03,31,05,38,6.50
2016,03,31,05,39,6.50
2016,03,31,05,40,6.50
2016,03,31,05,41,6.50
2016,03,31,05,42,6.50
2016,03,31,05,43,6.40
2016,03,31,05,44,6.40
2016,03,31,05,45,6.40
2016,03,31,05,46,6.40
2016,03,31,05,47,6.40
2016,03,31,05,48,6.40
2016,03,31,05,49,6.40
2016,03,31,05,50,6.30
2016,03,31,05,51,6.30
2016,03,31,05,52,6.30
2016,03,31,05,53,6.30
2016,03,31,05,54,6.30
2016,03,31,05,55,6.30
2016,03,31,05,56,6.30
2016,03,31,05,57,6.30
2016,03,31,05,58,6.30
2016,03,31,05,59,6.30
2016,03,31,06,00,6.30
2016,03,31,06,01,6.20
2016,03,31,06,02,6.20
2016,03,31,06,03,6.20
2016,03,31,06,04,6.20
2016,03,31,06,05,6.20
2016,03,31,06,06,6.20
2016,03,31,06,07,6.20
2016,03,31,06,08,6.20
2016,03,31,06,09,6.20
2016,03,31,06,10,6.20
2016,03,31,06,11,6.20
2016,03,31,06,12,6.20
2016,03,31,06,13,6.20
2016,03,31,06,14,6.20
2016,03,31,06,15,6.20
2016,03,31,06,16,6.20
2016,03,31,06,17,6.20
2016,03,31,06,18,6.20
2016,03,31,06,19,6.20
2016,03,31,06,20,6.20
2016,03,31,06,21,6.20
2016,03,31,06,22,6.20
2016,03,31,06,23,6.20
2016,03,31,06,24,6.20
2016,03,31,06,25,6.20
2016,03,31,06,26,6.20
2016,03,31,06,27,6.20
2016,03,31,06,28,6.20
2016,03,31,06,29,6.20
2016,03,31,06,30,6.20
2016,03,31,06,31,6.20
2016,03,31,06,32,6.20
2016,03,31,06,33,6.20
2016,03,31,06,34,6.20
2016,03,31,06,35,6.20
2016,03,31,06,36,6.20
2016,03,31,06,37,6.10
2016,03,31,06,38,6.10
2016,03,31,06,39,6.10
2016,03,31,06,40,6.10
2016,03,31,06,41,6.10
2016,03,31,06,42,6.10
2016,03,31,06,43,6.10
2016,03,31,06,44,6.10
2016,03,31,06,45,6.10
2016,03,31,06,46,6.10
2016,03,31,06,47,6.00
2016,03,31,06,48,6.00
2016,03,31,06,49,6.00
2016,03,31,06,50,6.00
2016,03,31,06,51,6.00
2016,03,31,06,52,5.90
2016,03,31,06,53,5.90
2016,03,31,06,54,5.90
2016,03,31,06,55,5.90
2016,03,31,06,56,5.90
2016,03,31,06,57,5.90
2016,03,31,06,58,5.90
2016,03,31,06,59,5.90
2016,03,31,07,00,5.90
2016,03,31,07,01,5.90
2016,03,31,07,02,5.90
2016,03,31,07,03,5.90
2016,03,31,07,04,5.90
2016,03,31,07,05,5.90
2016,03,31,07,06,5.90
2016,03,31,07,07,5.90
2016,03,31,07,08,5.90
2016,03,31,07,09,5.90
2016,03,31,07,10,5.80
2016,03,31,07,11,5.90
2016,03,31,07,12,5.80
2016,03,31,07,13,5.80
2016,03,31,07,14,5.80
2016,03,31,07,15,5.80
2016,03,31,07,16,5.80
2016,03,31,07,17,5.80
2016,03,31,07,18,5.80
2016,03,31,07,19,5.80
2016,03,31,07,20,5.80
2016,03,31,07,21,5.80
2016,03,31,07,22,5.80
2016,03,31,07,23,5.80
2016,03,31,07,24,5.80
2016,03,31,07,25,5.80
2016,03,31,07,26,5.80
2016,03,31,07,27,5.80
2016,03,31,07,28,5.80
2016,03,31,07,29,5.80
2016,03,31,07,30,5.80
2016,03,31,07,31,5.80
2016,03,31,07,32,5.80
2016,03,31,07,33,5.80
2016,03,31,07,34,5.80
2016,03,31,07,35,5.80
2016,03,31,07,36,5.80
2016,03,31,07,37,5.80
2016,03,31,07,38,5.80
2016,03,31,07,39,5.80
2016,03,31,07,40,5.80
2016,03,31,07,41,5.80
2016,03,31,07,42,5.80
2016,03,31,07,43,5.80
2016,03,31,07,44,5.80
2016,03,31,07,45,5.80
2016,03,31,07,46,5.80
2016,03,31,07,47,5.80
2016,03,31,07,48,5.80
2016,03,31,07,49,5.80
2016,03,31,07,50,5.80
2016,03,31,07,51,5.80
2016,03,31,07,52,5.80
2016,03,31,07,53,5.80
2016,03,31,07,54,5.80
2016,03,31,07,55,5.80
2016,03,31,07,56,5.90
2016,03,31,07,57,5.90
2016,03,31,07,58,5.90
2016,03,31,07,59,6.00
2016,03,31,08,00,6.10
2016,03,31,08,01,6.10
2016,03,31,08,02,6.20
2016,03,31,08,03,6.20
2016,03,31,08,04,6.30
2016,03,31,08,05,6.30
2016,03,31,08,06,6.40
2016,03,31,08,07,6.40
2016,03,31,08,08,6.50
2016,03,31,08,09,6.60
2016,03,31,08,10,6.60
2016,03,31,08,11,6.60
2016,03,31,08,12,6.60
2016,03,31,08,13,6.60
2016,03,31,08,14,6.60
2016,03,31,08,15,6.60
2016,03,31,08,16,6.60
2016,03,31,08,17,6.60
2016,03,31,08,18,6.70
2016,03,31,08,19,6.70
2016,03,31,08,20,6.70
2016,03,31,08,21,6.70
2016,03,31,08,22,6.70
2016,03,31,08,23,6.80
2016,03,31,08,24,6.80
2016,03,31,08,25,6.80
2016,03,31,08,26,6.80
2016,03,31,08,27,6.80
2016,03,31,08,28,6.80
2016,03,31,08,29,6.80
2016,03,31,08,30,6.80
2016,03,31,08,31,6.80
2016,03,31,08,32,6.80
2016,03,31,08,33,6.80
2016,03,31,08,34,6.80
2016,03,31,08,35,6.90
2016,03,31,08,36,7.00
2016,03,31,08,37,7.10
2016,03,31,08,38,7.20
2016,03,31,08,39,7.20
2016,03,31,08,40,7.30
2016,03,31,08,41,7.30
2016,03,31,08,42,7.40
2016,03,31,08,43,7.40
2016,03,31,08,44,7.40
2016,03,31,08,45,7.50
2016,03,31,08,46,7.50
2016,03,31,08,47,7.50
2016,03,31,08,48,7.50
2016,03,31,08,49,7.50
2016,03,31,08,50,7.50
2016,03,31,08,51,7.50
2016,03,31,08,52,7.60
2016,03,31,08,53,7.60
2016,03,31,08,54,7.70
2016,03,31,08,55,7.80
2016,03,31,08,56,7.80
2016,03,31,08,57,7.90
2016,03,31,08,58,7.90
2016,03,31,08,59,7.90
2016,03,31,09,00,8.00
2016,03,31,09,01,8.10
2016,03,31,09,02,8.10
2016,03,31,09,03,8.10
2016,03,31,09,04,8.10
2016,03,31,09,05,8.10
2016,03,31,09,06,8.20
2016,03,31,09,07,8.20
2016,03,31,09,08,8.20
2016,03,31,09,09,8.20
2016,03,31,09,10,8.20
2016,03,31,09,11,8.20
2016,03,31,09,12,8.20
2016,03,31,09,13,8.20
2016,03,31,09,14,8.20
2016,03,31,09,15,8.20
2016,03,31,09,16,8.20
2016,03,31,09,17,8.30
2016,03,31,09,18,8.30
2016,03,31,09,19,8.40
2016,03,31,09,20,8.50
2016,03,31,09,21,8.60
2016,03,31,09,22,8.70
2016,03,31,09,23,8.80
2016,03,31,09,24,8.90
2016,03,31,09,25,9.10
2016,03,31,09,26,9.20
2016,03,31,09,27,9.30
2016,03,31,09,28,9.40
2016,03,31,09,29,9.60
2016,03,31,09,30,9.70
2016,03,31,09,31,9.80
2016,03,31,09,32,9.90
2016,03,31,09,33,10.00
2016,03,31,09,34,10.10
2016,03,31,09,35,10.20
2016,03,31,09,36,10.30
2016,03,31,09,37,10.30
2016,03,31,09,38,10.40
2016,03,31,09,39,10.40
2016,03,31,09,40,10.50
2016,03,31,09,41,10.50
2016,03,31,09,42,10.60
2016,03,31,09,43,10.60
2016,03,31,09,44,10.70
2016,03,31,09,45,10.70
2016,03,31,09,46,10.70
2016,03,31,09,47,10.70
2016,03,31,09,48,10.70
2016,03,31,09,49,10.80
2016,03,31,09,50,10.80
2016,03,31,09,51,10.80
2016,03,31,09,52,10.80
2016,03,31,09,53,10.80
2016,03,31,09,54,10.70
2016,03,31,09,55,10.70
2016,03,31,09,56,10.70
2016,03,31,09,57,10.60
2016,03,31,09,58,10.60
2016,03,31,09,59,10.60
2016,03,31,10,00,10.60
2016,03,31,10,01,10.60
2016,03,31,10,02,10.60
2016,03,31,10,03,10.50
2016,03,31,10,04,10.50
2016,03,31,10,05,10.60
2016,03,31,10,06,10.60
2016,03,31,10,07,10.70
2016,03,31,10,08,10.80
2016,03,31,10,09,10.90
2016,03,31,10,10,10.90
2016,03,31,10,11,11.00
2016,03,31,10,12,11.10
2016,03,31,10,13,11.10
2016,03,31,10,14,11.20
2016,03,31,10,15,11.20
2016,03,31,10,16,11.20
2016,03,31,10,17,11.30
2016,03,31,10,18,11.30
2016,03,31,10,19,11.40
2016,03,31,10,20,11.40
2016,03,31,10,21,11.60
2016,03,31,10,22,11.60
2016,03,31,10,23,11.70
2016,03,31,10,24,11.80
2016,03,31,10,25,11.80
2016,03,31,10,26,11.90
2016,03,31,10,27,11.90
2016,03,31,10,28,12.00
2016,03,31,10,29,12.10
2016,03,31,10,30,12.10
2016,03,31,10,31,12.20
2016,03,31,10,32,12.30
2016,03,31,10,33,12.40
2016,03,31,10,34,12.50
2016,03,31,10,35,12.60
2016,03,31,10,36,12.70
2016,03,31,10,37,12.70
2016,03,31,10,38,12.80
2016,03,31,10,39,12.90
2016,03,31,10,40,13.00
2016,03,31,10,41,13.10
2016,03,31,10,42,13.20
2016,03,31,10,43,13.30
2016,03,31,10,44,13.30
2016,03,31,10,45,13.40
2016,03,31,10,46,13.60
2016,03,31,10,47,13.70
2016,03,31,10,48,13.80
2016,03,31,10,49,13.80
2016,03,31,10,50,13.90
2016,03,31,10,51,14.00
2016,03,31,10,52,14.10
2016,03,31,10,53,14.10
2016,03,31,10,54,14.10
2016,03,31,10,55,14.10
2016,03,31,10,56,14.10
2016,03,31,10,57,14.10
2016,03,31,10,58,14.20
2016,03,31,10,59,14.20
2016,03,31,11,00,14.30
2016,03,31,11,01,14.30
2016,03,31,11,02,14.40
2016,03,31,11,03,14.40
2016,03,31,11,04,14.40
2016,03,31,11,05,14.50
2016,03,31,11,06,14.60
2016,03,31,11,07,14.60
2016,03,31,11,08,14.60
2016,03,31,11,09,14.60
2016,03,31,11,10,14.60
2016,03,31,11,11,14.60
2016,03,31,11,12,14.60
2016,03,31,11,13,14.60
2016,03,31,11,14,14.60
2016,03,31,11,15,14.60
2016,03,31,11,16,14.60
2016,03,31,11,17,14.60
2016,03,31,11,18,14.70
2016,03,31,11,19,14.70
2016,03,31,11,20,14.70
2016,03,31,11,21,14.80
2016,03,31,11,22,14.80
2016,03,31,11,23,14.90
2016,03,31,11,24,14.90
2016,03,31,11,25,14.90
2016,03,31,11,26,14.90
2016,03,31,11,27,14.90
2016,03,31,11,28,14.90
2016,03,31,11,29,15.00
2016,03,31,11,30,15.10
2016,03,31,11,31,15.10
2016,03,31,11,32,15.20
2016,03,31,11,33,15.20
2016,03,31,11,34,15.20
2016,03,31,11,35,15.20
2016,03,31,11,36,15.20
2016,03,31,11,37,15.20
2016,03,31,11,38,15.20
2016,03,31,11,39,15.30
2016,03,31,11,40,15.30
2016,03,31,11,41,15.40
2016,03,31,11,42,15.40
2016,03,31,11,43,15.40
2016,03,31,11,44,15.40
2016,03,31,11,45,15.40
2016,03,31,11,46,15.50
2016,03,31,11,47,15.60
2016,03,31,11,48,15.60
2016,03,31,11,49,15.70
2016,03,31,11,50,15.70
2016,03,31,11,51,15.80
2016,03,31,11,52,15.80
2016,03,31,11,53,15.90
2016,03,31,11,54,16.00
2016,03,31,11,55,16.10
2016,03,31,11,56,16.20
2016,03,31,11,57,16.30
2016,03,31,11,58,16.50
2016,03,31,11,59,16.60
2016,03,31,12,00,16.70
2016,03,31,12,01,16.70
2016,03,31,12,02,16.80
2016,03,31,12,03,16.80
2016,03,31,12,04,16.80
2016,03,31,12,05,16.80
2016,03,31,12,06,16.80
2016,03,31,12,07,16.90
2016,03,31,12,08,16.90
2016,03,31,12,09,16.90
2016,03,31,12,10,16.80
2016,03,31,12,11,16.80
2016,03,31,12,12,16.90
2016,03,31,12,13,16.90
2016,03,31,12,14,17.00
2016,03,31,12,15,17.10
2016,03,31,12,16,17.20
2016,03,31,12,17,17.30
2016,03,31,12,18,17.50
2016,03,31,12,19,17.60
2016,03,31,12,20,17.70
2016,03,31,12,21,17.80
2016,03,31,12,22,17.90
2016,03,31,12,23,18.10
2016,03,31,12,24,18.10
2016,03,31,12,25,18.20
2016,03,31,12,26,18.20
2016,03,31,12,27,18.20
2016,03,31,12,28,18.30
2016,03,31,12,29,18.30
2016,03,31,12,30,18.30
2016,03,31,12,31,18.30
2016,03,31,12,32,18.30
2016,03,31,12,33,18.30
2016,03,31,12,34,18.30
2016,03,31,12,35,18.20
2016,03,31,12,36,18.20
2016,03,31,12,37,18.30
2016,03,31,12,38,18.30
2016,03,31,12,39,18.40
2016,03,31,12,40,18.40
2016,03,31,12,41,18.50
2016,03,31,12,42,18.60
2016,03,31,12,43,18.60
2016,03,31,12,44,18.50
2016,03,31,12,45,18.60
2016,03,31,12,46,18.60
2016,03,31,12,47,18.60
2016,03,31,12,48,18.70
2016,03,31,12,49,18.70
2016,03,31,12,50,18.80
2016,03,31,12,51,19.00
2016,03,31,12,52,19.20
2016,03,31,12,53,19.30
2016,03,31,12,54,19.40
2016,03,31,12,55,19.50
2016,03,31,12,56,19.60
2016,03,31,12,57,19.70
2016,03,31,12,58,19.70
2016,03,31,12,59,19.80
2016,03,31,13,00,19.80
2016,03,31,13,01,19.90
2016,03,31,13,02,20.10
2016,03,31,13,03,20.10
2016,03,31,13,04,20.20
2016,03,31,13,05,20.30
2016,03,31,13,06,20.30
2016,03,31,13,07,20.30
2016,03,31,13,08,20.30
2016,03,31,13,09,20.40
2016,03,31,13,10,20.60
2016,03,31,13,11,20.60
2016,03,31,13,12,20.60
2016,03,31,13,13,20.40
2016,03,31,13,14,20.40
2016,03,31,13,15,20.30
2016,03,31,13,16,20.30
2016,03,31,13,17,20.30
2016,03,31,13,18,20.30
2016,03,31,13,19,20.30
2016,03,31,13,20,20.20
2016,03,31,13,21,20.10
2016,03,31,13,22,20.00
2016,03,31,13,23,19.90
2016,03,31,13,24,19.90
2016,03,31,13,25,20.00
2016,03,31,13,26,20.10
2016,03,31,13,27,20.20
2016,03,31,13,28,20.20
2016,03,31,13,29,20.20
2016,03,31,13,30,20.30
2016,03,31,13,31,20.40
2016,03,31,13,32,20.40
2016,03,31,13,33,20.60
2016,03,31,13,34,20.60
2016,03,31,13,35,20.70
2016,03,31,13,36,20.70
2016,03,31,13,37,20.80
2016,03,31,13,38,20.80
2016,03,31,13,39,20.90
2016,03,31,13,40,21.00
2016,03,31,13,41,21.10
2016,03,31,13,42,21.20
2016,03,31,13,43,21.10
2016,03,31,13,44,21.10
2016,03,31,13,45,21.10
2016,03,31,13,46,21.20
2016,03,31,13,47,21.20
2016,03,31,13,48,21.30
2016,03,31,13,49,21.30
2016,03,31,13,50,21.40
2016,03,31,13,51,21.50
2016,03,31,13,52,21.60
2016,03,31,13,53,21.70
2016,03,31,13,54,21.80
2016,03,31,13,55,21.80
2016,03,31,13,56,21.90
2016,03,31,13,57,22.00
2016,03,31,13,58,22.10
2016,03,31,13,59,22.20
2016,03,31,14,00,22.20
2016,03,31,14,01,22.20
2016,03,31,14,02,22.30
2016,03,31,14,03,22.30
2016,03,31,14,04,22.40
2016,03,31,14,05,22.50
2016,03,31,14,06,22.60
2016,03,31,14,07,22.60
2016,03,31,14,08,22.70
2016,03,31,14,09,22.80
2016,03,31,14,10,22.80
2016,03,31,14,11,22.90
2016,03,31,14,12,22.80
2016,03,31,14,13,22.90
2016,03,31,14,14,22.90
2016,03,31,14,15,23.00
2016,03,31,14,16,23.00
2016,03,31,14,17,23.00
2016,03,31,14,18,23.00
2016,03,31,14,19,23.00
2016,03,31,14,20,22.90
2016,03,31,14,21,22.90
2016,03,31,14,22,22.80
2016,03,31,14,23,22.80
2016,03,31,14,24,22.70
2016,03,31,14,25,22.70
2016,03,31,14,26,22.60
2016,03,31,14,27,22.50
2016,03,31,14,28,22.40
2016,03,31,14,29,22.40
2016,03,31,14,30,22.30
2016,03,31,14,31,22.20
2016,03,31,14,32,22.10
2016,03,31,14,33,22.00
2016,03,31,14,34,21.90
2016,03,31,14,35,21.80
2016,03,31,14,36,21.80
2016,03,31,14,37,21.80
2016,03,31,14,38,21.80
2016,03,31,14,39,21.80
2016,03,31,14,40,21.90
2016,03,31,14,41,21.90
2016,03,31,14,42,21.90
2016,03,31,14,43,22.00
2016,03,31,14,44,22.10
2016,03,31,14,45,22.10
2016,03,31,14,46,22.10
2016,03,31,14,47,21.90
2016,03,31,14,48,21.80
2016,03,31,14,49,21.70
2016,03,31,14,50,21.70
2016,03,31,14,51,21.70
2016,03,31,14,52,21.70
2016,03,31,14,53,21.70
2016,03,31,14,54,21.80
2016,03,31,14,55,22.00
2016,03,31,14,56,22.20
2016,03,31,14,57,22.30
2016,03,31,14,58,22.40
2016,03,31,14,59,22.50
2016,03,31,15,00,22.70
2016,03,31,15,01,22.70
2016,03,31,15,02,22.70
2016,03,31,15,03,22.70
2016,03,31,15,04,22.70
2016,03,31,15,05,22.80
2016,03,31,15,06,22.80
2016,03,31,15,07,23.00
2016,03,31,15,08,23.10
2016,03,31,15,09,23.20
2016,03,31,15,10,23.30
2016,03,31,15,11,23.40
2016,03,31,15,12,23.40
2016,03,31,15,13,23.50
2016,03,31,15,14,23.50
2016,03,31,15,15,23.60
2016,03,31,15,16,23.70
2016,03,31,15,17,23.60
2016,03,31,15,18,23.40
2016,03,31,15,19,23.30
2016,03,31,15,20,23.20
2016,03,31,15,21,23.00
2016,03,31,15,22,22.90
2016,03,31,15,23,22.80
2016,03,31,15,24,22.80
2016,03,31,15,25,22.90
2016,03,31,15,26,22.90
2016,03,31,15,27,23.00
2016,03,31,15,28,23.00
2016,03,31,15,29,23.00
2016,03,31,15,30,23.00
2016,03,31,15,31,23.00
2016,03,31,15,32,23.00
2016,03,31,15,33,23.00
2016,03,31,15,34,23.10
2016,03,31,15,35,23.10
2016,03,31,15,36,23.00
2016,03,31,15,37,22.90
2016,03,31,15,38,22.90
2016,03,31,15,39,22.80
2016,03,31,15,40,22.80
2016,03,31,15,41,22.80
2016,03,31,15,42,22.90
2016,03,31,15,43,22.90
2016,03,31,15,44,23.10
2016,03,31,15,45,23.20
2016,03,31,15,46,23.30
2016,03,31,15,47,23.40
2016,03,31,15,48,23.60
2016,03,31,15,49,23.70
2016,03,31,15,50,23.90
2016,03,31,15,51,24.10
2016,03,31,15,52,24.20
2016,03,31,15,53,24.40
2016,03,31,15,54,24.50
2016,03,31,15,55,24.60
2016,03,31,15,56,24.50
2016,03,31,15,57,24.40
2016,03,31,15,58,24.40
2016,03,31,15,59,24.40
2016,03,31,16,00,24.40
2016,03,31,16,01,24.40
2016,03,31,16,02,24.40
2016,03,31,16,03,24.40
2016,03,31,16,04,24.40
2016,03,31,16,05,24.50
2016,03,31,16,06,24.50
2016,03,31,16,07,24.50
2016,03,31,16,08,24.60
2016,03,31,16,09,24.60
2016,03,31,16,10,24.60
2016,03,31,16,11,24.60
2016,03,31,16,12,24.60
2016,03,31,16,13,24.50
2016,03,31,16,14,24.40
2016,03,31,16,15,24.30
2016,03,31,16,16,24.30
2016,03,31,16,17,24.20
2016,03,31,16,18,24.20
2016,03,31,16,19,24.20
2016,03,31,16,20,24.20
2016,03,31,16,21,24.20
2016,03,31,16,22,24.20
2016,03,31,16,23,24.20
2016,03,31,16,24,24.20
2016,03,31,16,25,24.10
2016,03,31,16,26,24.00
2016,03,31,16,27,23.90
2016,03,31,16,28,23.80
2016,03,31,16,29,23.70
2016,03,31,16,30,23.70
2016,03,31,16,31,23.60
2016,03,31,16,32,23.60
2016,03,31,16,33,23.60
2016,03,31,16,34,23.60
2016,03,31,16,35,23.60
2016,03,31,16,36,23.50
2016,03,31,16,37,23.40
2016,03,31,16,38,23.30
2016,03,31,16,39,23.30
2016,03,31,16,40,23.30
2016,03,31,16,41,23.20
2016,03,31,16,42,23.20
2016,03,31,16,43,23.20
2016,03,31,16,44,23.20
2016,03,31,16,45,23.30
2016,03,31,16,46,23.30
2016,03,31,16,47,23.40
2016,03,31,16,48,23.40
2016,03,31,16,49,23.40
2016,03,31,16,50,23.40
2016,03,31,16,51,23.40
2016,03,31,16,52,23.40
2016,03,31,16,53,23.40
2016,03,31,16,54,23.40
2016,03,31,16,55,23.40
2016,03,31,16,56,23.40
2016,03,31,16,57,23.30
2016,03,31,16,58,23.30
2016,03,31,16,59,23.20
2016,03,31,17,00,23.10
2016,03,31,17,01,23.00
2016,03,31,17,02,22.90
2016,03,31,17,03,22.80
2016,03,31,17,04,22.70
2016,03,31,17,05,22.70
2016,03,31,17,06,22.60
2016,03,31,17,07,22.40
2016,03,31,17,08,22.40
2016,03,31,17,09,22.40
2016,03,31,17,10,22.30
2016,03,31,17,11,22.30
2016,03,31,17,12,22.20
2016,03,31,17,13,22.20
2016,03,31,17,14,22.20
2016,03,31,17,15,22.20
2016,03,31,17,16,22.10
2016,03,31,17,17,22.10
2016,03,31,17,18,22.10
2016,03,31,17,19,22.20
2016,03,31,17,20,22.20
2016,03,31,17,21,22.20
2016,03,31,17,22,22.20
2016,03,31,17,23,22.10
2016,03,31,17,24,22.00
2016,03,31,17,25,21.90
2016,03,31,17,26,21.80
2016,03,31,17,27,21.80
2016,03,31,17,28,21.80
2016,03,31,17,29,21.80
2016,03,31,17,30,21.70
2016,03,31,17,31,21.70
2016,03,31,17,32,21.70
2016,03,31,17,33,21.60
2016,03,31,17,34,21.60
2016,03,31,17,35,21.50
2016,03,31,17,36,21.40
2016,03,31,17,37,21.40
2016,03,31,17,38,21.30
2016,03,31,17,39,21.30
2016,03,31,17,40,21.30
2016,03,31,17,41,21.30
2016,03,31,17,42,21.30
2016,03,31,17,43,21.30